CAPE
692 1053 2019 2199 1096 385 44 2 16 7 1 6 51 3 2 0 0 0 0 13 57 135 40 277 399 419 454 368 437 420 347 294 363 385 388 440 517 682 708 657 591 615 652 698 1056 992 576 402 434
1897 2353 2234 2307 427 81 36 64 0 22 11 12 0 1 0 0 0 0 2 10 109 166 217 35 401 400 383 451 380 356 361 368 361 339 288 295 344 484 585 712 559 607 623 571 715 947 392 343 403
2296 2751 2479 1008 63 149 143 90 220 66 0 3 0 0 0 0 9 5 31 84 175 199 239 108 345 354 246 415 384 293 295 276 277 280 297 275 284 363 407 376 583 585 564 723 618 332 360 357 346
2243 2459 2589 69 59 129 226 256 171 48 0 0 0 19 11 52 54 80 142 190 228 242 325 395 458 534 453 491 839 542 315 243 258 309 377 340 338 393 408 357 413 489 538 410 682 464 216 367 199
1825 1744 90 56 40 51 138 188 230 224 0 0 0 10 27 57 26 262 292 271 197 155 312 544 804 834 813 727 628 619 624 484 392 485 418 379 380 632 715 742 801 723 565 521 551 629 271 137 159
844 305 45 32 32 16 26 198 251 273 48 0 0 14 11 2 123 211 134 123 127 132 283 499 842 995 899 853 901 903 772 742 656 636 732 833 870 882 648 615 594 718 574 587 318 423 421 124 95
385 2 62 11 9 3 18 45 126 124 111 0 0 18 32 22 27 99 225 77 52 115 197 377 560 937 1227 1026 1089 910 889 817 861 824 584 757 356 645 354 257 549 922 934 529 493 468 405 278 272
81 97 75 78 7 0 0 0 56 69 0 0 1 4 40 73 71 55 13 125 113 150 186 241 595 648 525 1002 780 1117 597 847 490 909 729 636 487 352 576 617 494 951 538 897 464 576 594 414 336
0 23 23 105 87 81 0 0 8 0 2 60 151 23 37 65 11 21 18 59 86 251 532 290 222 456 597 918 1022 1078 985 995 903 799 635 480 616 601 592 330 0 1 252 674 770 600 560 534 282
99 62 133 11 68 134 0 0 7 21 34 9 19 102 57 70 15 30 25 69 128 127 443 561 533 445 661 589 344 739 613 611 735 621 285 298 589 584 556 731 41 0 16 657 849 630 347 417 199
104 48 36 180 87 34 18 44 131 100 18 0 82 75 67 47 6 0 33 37 64 169 220 250 265 131 180 457 702 782 545 624 710 813 971 931 407 203 46 381 562 117 106 334 605 605 472 138 223
139 113 115 172 199 441 82 75 52 215 46 0 62 64 36 23 23 14 34 47 82 91 381 456 543 448 498 379 453 815 678 742 746 1046 1078 1077 494 449 564 908 248 143 514 491 688 543 267 224 223
171 144 190 231 224 214 238 168 166 0 0 3 37 15 7 25 55 70 91 96 219 266 400 555 764 410 662 318 439 778 724 772 829 1209 1283 830 1126 1051 1228 1088 699 1042 729 450 437 389 448 254 335
361 236 290 279 240 460 178 186 209 0 0 0 9 10 11 0 0 2 27 79 156 385 576 836 876 797 846 540 800 1008 1053 878 920 1215 1797 1933 1160 1507 1475 981 808 740 793 457 422 472 621 781 542
291 297 366 313 325 549 356 634 379 0 0 0 0 0 0 0 0 0 0 8 113 273 486 709 1026 890 1030 1171 1208 1402 1063 1159 1103 1353 1800 1941 1809 1609 1378 1258 1071 294 809 979 711 1057 951 491 253
198 107 139 252 291 221 403 902 497 22 3 0 0 17 12 18 6 12 10 5 85 124 386 669 821 1078 1354 1556 1534 1608 965 1248 1447 1118 2006 1724 1229 930 1162 1228 1011 554 791 831 672 767 364 612 407
49 123 268 147 211 299 618 728 624 178 78 28 27 204 222 295 189 126 94 103 315 329 419 644 942 1140 1386 1740 1651 1497 1218 1518 1281 1915 574 141 1572 1884 1909 1446 1281 558 1031 245 405 536 605 446 185
2 41 407 364 184 268 275 789 740 580 235 190 155 276 285 373 322 311 288 339 625 515 585 777 748 1488 1638 1734 2036 1918 1728 1303 1736 1408 1166 692 1779 2423 1593 1354 762 881 695 461 809 503 586 1247 290
34 228 313 62 26 180 311 687 819 842 525 324 394 400 358 433 542 581 546 660 716 867 719 895 815 1701 1672 1983 1695 1474 1635 1529 1791 1812 2397 2553 2612 2476 1958 1170 1133 1097 1472 852 459 467 485 395 660
93 221 44 105 38 51 318 650 900 1031 1015 714 455 587 536 520 616 766 735 720 937 1055 1066 1062 1154 1434 1535 1522 1687 1501 2083 2062 287 134 1926 2622 2448 2512 2046 1845 1653 1383 983 1110 594 297 538 986 870
133 125 105 126 52 9 10 384 968 408 1019 1073 771 569 667 661 740 802 828 837 918 1306 1384 1423 1586 1694 1748 2018 1855 1623 1907 1963 1001 637 2106 2329 2691 2499 2217 2136 2048 2120 1371 1619 568 126 778 406 855
93 96 48 58 34 1 75 209 205 476 919 974 964 805 709 737 725 852 951 869 841 1299 1579 1773 1781 2314 2144 2217 2218 1701 1222 1326 1024 1404 2021 2575 2683 2494 2390 2248 2144 1959 1810 1595 536 117 470 852 649
32 68 131 90 47 0 2 53 120 69 345 677 984 950 927 803 795 808 909 1008 873 1063 1438 1936 2013 2217 2184 2334 2231 2097 2127 2067 1435 1402 2142 2583 2638 2625 2221 2408 2086 2366 1662 1247 927 362 228 912 495
0 9 59 39 16 0 0 143 422 362 237 156 463 791 1010 1005 885 803 841 1009 944 1103 1293 1769 2103 2231 2347 2565 2091 2537 2328 1784 2074 1500 1858 1497 2274 1884 2201 2256 2074 2087 2070 1438 911 723 681 867 975
0 0 0 10 9 23 35 192 354 11 0 52 522 810 1023 1009 1020 880 901 1008 935 1104 1198 1760 2238 2410 2534 2994 2720 2205 2762 2653 2064 2277 1692 1137 1955 1738 2332 2249 2774 2258 2407 2072 1330 1057 1258 900 269
0 0 0 0 0 9 72 42 66 0 69 69 148 586 984 932 958 980 1023 1086 1060 910 939 1460 2497 2737 2924 2669 2845 2839 2789 2988 2539 2190 1653 1830 1353 2592 2245 2044 2496 2421 2295 2411 1952 1611 1118 824 600
0 0 0 0 0 0 38 22 9 4 202 163 112 584 753 848 935 905 1041 1001 1112 954 1129 1541 2347 2644 2861 3009 3073 3154 3116 2991 2629 2214 1800 1510 1923 1988 1984 2492 2593 2475 2582 2396 2310 1537 1211 824 483
0 0 0 0 0 0 48 25 168 205 161 203 287 463 514 672 853 934 1169 1122 1101 1014 1165 1314 2304 2489 2871 2969 3255 3228 3433 3283 2998 2889 2226 2168 2228 1796 2621 2831 2753 2575 2760 2558 2452 2236 1381 917 617
0 0 0 0 0 0 0 48 0 17 12 98 308 558 432 599 680 814 1115 1208 1276 1221 1183 1484 2163 2605 3083 2944 2967 2960 3211 3389 3284 2790 2742 2237 2411 2445 2452 2658 3011 3045 2789 2646 2562 2272 2153 1289 668
0 0 0 0 0 0 10 6 1 0 0 46 429 511 423 434 497 753 934 1189 1394 1448 1566 1793 1936 2263 2955 2868 2861 2805 2896 2824 3048 3002 2918 2733 2714 3030 2791 3141 3198 3257 3360 3047 2718 2692 2187 1930 1635
CIN
-467 -335 -152 -20 -20 -17 -36 -5 -30 -29 -7 -33 -3 -20 -45 0 0 0 0 -172 -55 -4 -41 0 -1 -1 -2 0 0 0 0 -3 -2 -3 -17 -19 0 0 -1 -3 -6 -16 -12 -3 0 0 -12 -11 -16
-276 -67 -26 -11 -17 -20 -59 -4 0 -3 -3 -12 0 -1 0 0 0 0 -75 -162 -30 -9 -9 -75 -1 -5 -8 0 -2 0 -1 -4 -1 -7 -39 -29 -6 -6 -4 -2 -3 -13 -14 -13 0 -2 -19 -19 -60
-249 -84 -18 -36 -10 -2 -3 -5 -8 -12 0 -25 0 0 0 0 -92 -161 -133 -121 -46 -3 -14 -50 -5 -1 -11 0 -2 -6 -2 -4 -5 -8 -22 -27 -13 -13 -4 -14 0 -11 -11 -3 -4 -9 -10 -13 -20
-84 -8 -32 -5 -2 -8 -3 -5 -2 -13 0 0 0 -102 -73 -41 -67 -77 -59 -68 -37 -8 -34 -29 -6 -1 -3 -3 0 -1 -1 -2 -1 -5 -8 -16 -7 -4 -7 -16 0 -1 -11 -16 -4 -7 -25 -9 -24
-45 -17 -6 -4 -3 -3 -5 -4 -13 -3 0 0 0 -117 -135 -55 -127 -33 -21 -32 -28 -61 -45 -19 0 -1 0 -1 0 0 0 -8 0 0 -4 -6 -1 -1 0 -3 0 0 -1 -6 -10 -1 -16 -35 -31
-27 -52 -4 -8 -3 -2 -6 -3 -1 -3 -23 0 0 -164 -164 -72 -49 -33 -47 -48 -45 -70 -31 -23 -9 -2 -1 0 0 0 -3 0 -1 0 -1 -1 -1 -1 -2 -9 -3 0 -1 0 -12 -9 -6 -32 -40
-11 -28 -3 -2 -2 -1 -5 -15 -6 -10 -20 0 0 -209 -186 -154 -118 -37 -41 -84 -91 -102 -74 -41 -13 -1 0 0 0 -2 -2 -6 -1 0 -11 -7 -17 -9 -15 -30 -5 0 -1 -4 -6 -7 -7 -17 -20
-94 -15 -3 -4 -4 0 0 0 -26 -28 0 -6 -7 -66 -214 -173 -103 -78 -134 -44 -67 -85 -101 -56 -19 -23 -39 -4 -15 0 -18 -3 -24 -4 -18 -18 -24 -31 -19 -21 -17 -1 -1 0 -5 -3 -7 -19 -25
-21 -9 -3 -34 -11 -7 0 0 -50 0 -37 -67 -36 -183 -196 -199 -212 -157 -174 -99 -94 -21 -19 -58 -65 -57 -52 -32 -30 -11 -15 -9 -14 -17 -25 -39 -27 -21 -8 -46 -15 -77 -24 0 0 -3 -3 -14 -34
-48 -28 -9 -11 -39 -10 0 0 -117 -61 -51 -92 -129 -122 -186 -160 -205 -162 -147 -97 -74 -86 -34 -23 -34 -43 -35 -8 -64 -45 -38 -35 -24 -17 -30 -23 -7 -5 -5 -10 -75 0 -91 -6 0 0 -17 -16 -34
-16 -54 -39 -5 -20 -13 -51 -21 -11 -9 -77 -14 -103 -173 -186 -180 -210 0 -111 -118 -140 -76 -50 -33 -20 -61 -21 -23 -36 -16 -23 -16 -8 -14 -13 -3 -32 -23 -57 -33 -30 -68 -67 -35 -13 -10 -21 -28 -9
-14 -38 -45 -41 -9 -1 -8 -4 -16 -5 -22 0 -114 -163 -191 -204 -175 -166 -141 -135 -135 -124 -8 -5 -33 -37 -17 -7 -13 -16 -17 -15 -6 -4 -4 -4 -25 -35 -11 -9 -38 -79 -57 -56 -23 -23 -19 -10 -7
-9 -40 -41 -45 -13 -25 -2 -4 -22 0 0 -55 -129 -182 -141 -148 -102 -95 -76 -57 -52 -59 -19 -19 -47 -59 -39 -48 -27 -10 -20 -13 -13 -12 -12 -20 -10 -12 -7 -12 -41 -7 -30 -18 -23 -25 -13 -12 -10
-7 -9 -22 -19 -33 -11 -11 -26 -34 0 0 0 -196 -210 -179 -60 0 -41 -92 -73 -51 -15 -7 -6 -36 -60 -51 -66 -26 -6 -7 -10 -7 -14 -9 -7 -16 -13 -12 -7 -20 -11 -28 -43 -46 -9 -8 -6 -7
-2 -3 -3 -21 -50 -11 -29 -5 -29 0 0 0 0 0 0 0 0 0 0 -123 -88 -53 -29 -21 -8 -54 -53 -35 -21 -13 -14 -8 -8 -10 -7 -1 -6 -11 -27 -22 -13 -49 -11 -25 -26 -12 -13 -30 -49
-17 -16 -134 -8 -28 -98 -213 -5 -44 -92 -72 0 -16 -175 -155 -121 -163 -145 -146 -154 -102 -68 -41 -27 -5 -30 -22 -6 -23 -14 -29 -15 -9 -15 -7 -17 -29 -40 -36 -12 -25 -30 -6 -13 -7 -9 -10 -18 -32
-147 -132 -4 -35 -22 -39 -10 -10 -46 -88 -110 -143 -153 -96 -76 -39 -42 -78 -83 -76 -30 -30 -50 -43 -3 -10 -9 -7 -11 -8 -29 -13 -13 -18 -98 -164 -23 -24 -15 -12 -22 -11 -13 -13 -7 -10 -12 -18 -35
-171 -156 -9 -5 -37 -42 -24 -13 -50 -62 -87 -100 -109 -107 -104 -75 -66 -81 -67 -30 -13 -33 -54 -24 -9 -15 -13 -14 -4 -11 -6 -6 -11 -61 -80 -109 -10 -10 -6 -38 -21 -19 -20 -19 -10 -16 -15 -11 -47
-285 -172 -18 -48 -106 -12 -1 -23 -68 -67 -76 -106 -90 -105 -107 -82 -35 -41 -38 -13 -7 -14 -53 -41 -40 -11 -7 -11 -11 -12 -7 -5 -11 -40 -23 -11 -3 0 -6 -38 -16 -14 -5 -19 -14 -12 -20 -34 -25
-150 -24 -113 -31 -93 -35 -31 -10 -27 -54 -48 -65 -78 -73 -92 -84 -40 -30 -10 -10 -10 -16 -35 -43 -38 -30 -15 -9 -3 -5 -4 -24 -121 -153 -47 -5 -7 -6 -1 -5 -11 -16 -27 -16 -27 -24 -13 -15 -23
-4 -5 -26 -86 -49 -121 -85 -14 -12 -135 -11 -25 -54 -57 -56 -63 -38 -13 -13 -6 -7 -12 -29 -36 -23 -33 -21 -5 -2 -7 -16 -10 -64 -58 -21 -18 -1 -3 -5 -4 -14 -9 -13 -16 -34 -54 -12 -18 -11
-11 -9 -10 -14 -96 -16 -27 -9 -157 -127 -27 -29 -26 -14 -33 -44 -39 -7 -8 -8 -9 -11 -18 -28 -34 -23 -27 -14 -5 -8 -15 -14 -13 -5 -8 -14 -9 -6 -1 -3 -9 -13 -7 -7 -29 -48 -17 -9 -9
-47 -22 -43 -47 -86 0 -15 -3 -77 -206 -162 -86 -25 -4 -3 -25 -20 -6 -2 -11 -16 -23 -19 -15 -36 -37 -37 -32 -18 -9 -7 -8 -5 -9 -6 -6 -12 -6 -2 -9 -14 -9 -5 -11 -18 -54 -46 -18 -12
0 -67 -58 -62 -112 0 0 -10 -116 -178 -193 -205 -130 -50 -3 -4 -4 -18 -5 -8 -30 -37 -26 -24 -37 -49 -38 -42 -30 -19 -10 -13 -8 -3 -5 -9 -14 -41 -6 -15 -26 -23 -11 -16 -37 -39 -35 -27 -22
0 0 -11 -32 -83 -90 -23 -45 -100 -209 0 -326 -213 -73 -28 -4 -5 -25 -10 -10 -35 -51 -51 -38 -46 -46 -47 -25 -39 -32 -19 -14 -15 -13 -17 -14 -17 -36 -13 -18 -6 -24 -7 -4 -20 -33 -27 -39 -65
0 0 0 0 0 -12 -22 -114 -118 -7 -264 -207 -173 -55 -23 -18 -11 -18 -27 -10 -23 -51 -73 -42 -58 -48 -48 -48 -43 -41 -27 -14 -20 -20 -15 -3 -12 -14 -11 -18 -10 -20 -17 -6 -6 -8 -18 -35 -54
0 0 0 0 0 0 -38 -102 -17 -122 -39 -43 -13 -5 -20 -13 -14 -32 -29 -27 -23 -65 -92 -80 -79 -71 -58 -56 -53 -40 -37 -23 -13 -6 -10 -14 -12 -35 -95 -7 -7 -4 -5 -7 -2 -13 -9 -26 -59
0 0 0 0 0 0 -33 -38 -25 -100 -25 -8 -4 -3 -7 -4 -5 -7 -9 -18 -42 -68 -104 -109 -119 -98 -92 -73 -47 -42 -31 -25 -13 -3 -12 -9 -3 -8 -7 -9 -14 -13 -6 -6 -3 -2 -19 -31 -57
0 0 0 0 0 0 0 -35 0 -45 -39 -5 -11 -7 -7 -5 -12 -4 -4 -9 -15 -79 -85 -83 -106 -106 -101 -71 -52 -42 -25 -18 -21 -25 -20 -28 -17 -15 -20 -23 -15 -2 -11 -9 -7 -14 -3 -34 -71
0 0 0 0 0 0 -18 -51 -5 0 0 -26 -8 -13 -38 -12 -5 -11 -6 -5 -14 -49 -73 -82 -97 -78 -87 -74 -37 -44 -25 -32 -36 -27 -17 -31 -30 -22 -18 -12 -11 -4 -2 -2 -6 -8 -9 -32 -41
Wind_Speed
22 21 17 15 16 20 16 31 33 32 30 27 25 22 20 21 5 4 21 24 18 20 21 18 21 24 26 29 27 23 23 24 28 30 29 26 27 25 27 26 26 25 25 26 26 26 26 25 26
19 17 15 15 24 18 25 28 29 29 31 31 29 27 25 25 22 29 27 25 28 29 24 20 24 22 29 28 27 26 26 28 26 26 27 25 24 22 23 23 23 22 23 22 23 24 25 25 26
17 15 17 21 29 25 25 29 29 30 31 31 32 30 28 33 34 30 12 33 32 28 18 29 26 25 26 27 27 26 26 26 26 25 25 23 21 20 20 21 20 19 19 20 20 23 24 24 25
15 14 15 28 26 26 29 29 30 31 30 32 35 32 36 35 28 37 37 35 34 32 30 30 28 15 27 25 25 27 26 25 24 23 22 21 19 18 18 18 17 16 16 17 19 20 22 23 24
15 15 30 29 26 25 27 27 26 28 28 28 31 33 34 35 36 36 35 35 34 22 28 30 25 24 25 25 25 26 26 24 23 22 21 19 18 17 17 17 16 15 14 16 18 19 21 22 23
18 15 29 30 27 28 26 25 25 25 27 29 30 32 30 32 34 33 33 35 28 28 27 30 22 24 24 22 24 25 24 23 22 21 20 19 18 17 17 17 16 16 16 17 18 20 21 22 23
10 22 28 28 27 20 21 25 25 26 27 26 29 31 29 31 32 30 31 32 26 24 23 21 28 27 26 14 25 24 23 23 21 20 20 19 19 19 18 18 18 18 18 18 20 20 22 23 23
13 25 27 28 28 26 26 24 26 26 26 28 27 27 30 31 30 27 22 28 29 21 20 23 26 26 25 25 24 23 22 22 21 20 20 20 19 19 20 20 18 18 18 18 20 21 22 23 23
10 25 27 28 28 27 25 23 20 25 28 24 22 25 28 30 30 28 26 16 11 27 21 25 25 25 26 23 22 22 21 21 20 20 19 20 18 18 19 19 18 17 17 18 19 20 21 22 23
21 28 29 28 28 27 24 26 27 25 23 21 23 26 27 28 27 26 26 25 24 23 22 24 24 23 25 21 19 21 20 20 19 19 18 17 16 17 18 17 16 16 17 17 18 19 20 21 22
27 29 27 28 29 27 28 25 23 21 21 22 25 26 27 27 25 23 23 23 23 24 5 16 18 15 22 18 19 19 18 18 19 18 17 16 16 14 16 16 16 16 17 17 17 18 18 20 20
24 27 28 28 28 24 26 26 22 22 21 22 23 25 27 26 25 23 23 22 19 23 23 17 13 16 17 17 20 19 17 18 18 18 17 15 17 17 17 18 17 17 16 17 17 17 17 18 18
23 25 26 27 26 27 25 25 26 24 22 24 25 25 23 24 24 22 21 21 21 24 22 17 14 10 12 18 19 18 17 16 17 18 16 15 16 18 17 18 16 16 15 16 15 15 16 15 17
22 24 24 25 24 22 24 25 26 26 25 25 26 26 25 23 22 20 20 18 18 21 19 17 17 17 16 18 17 16 14 15 14 16 16 16 17 15 15 17 15 16 16 17 16 15 14 12 17
21 23 24 23 23 23 7 20 24 26 27 27 25 26 25 24 24 20 20 17 17 19 16 14 15 16 15 16 17 17 16 16 15 14 16 15 12 14 14 14 18 19 18 18 17 16 14 15 17
21 4 19 22 21 23 27 24 23 25 25 25 25 24 23 23 23 20 20 19 18 18 14 13 15 14 14 14 16 16 12 16 13 13 13 14 17 15 15 14 17 16 16 16 16 16 14 14 15
17 19 20 19 18 21 19 23 22 23 23 24 23 23 22 21 21 20 20 20 18 17 16 15 14 15 15 12 14 15 15 15 13 11 11 17 15 15 15 16 15 16 14 15 16 17 17 16 17
25 18 14 18 17 16 17 19 21 22 23 22 22 22 21 21 21 21 20 21 19 17 16 18 17 14 13 12 15 18 12 18 10 13 15 16 17 15 13 15 16 16 19 19 19 18 18 18 19
21 18 16 13 13 10 19 17 18 21 21 21 21 21 21 21 21 20 21 22 19 17 17 19 18 14 12 12 13 15 15 10 13 9 12 13 14 13 14 15 16 14 16 18 18 17 15 16 16
18 19 14 12 12 12 14 10 15 17 18 19 19 19 19 20 21 20 20 20 20 18 17 18 17 14 15 16 16 14 16 12 12 16 18 12 12 12 8 15 15 17 16 18 18 15 14 13 14
17 16 16 16 11 10 10 16 13 9 15 17 16 18 19 19 20 21 20 20 19 19 18 17 18 16 18 19 14 9 17 13 11 12 14 14 13 12 14 16 17 16 16 15 16 14 14 15 11
29 6 7 12 15 13 7 4 8 13 9 12 16 19 19 19 19 20 21 20 20 19 19 17 18 17 17 19 15 12 12 10 13 13 10 11 11 12 13 15 16 15 16 14 14 16 17 16 11
32 24 23 24 8 2 5 1 14 9 7 16 18 20 20 19 20 22 22 20 20 19 18 18 17 18 18 18 17 11 10 13 9 10 11 10 10 11 13 14 15 14 14 15 13 15 19 17 16
25 32 28 17 20 18 15 2 5 6 5 12 25 27 21 21 22 21 22 21 19 17 16 17 17 16 17 16 17 15 12 14 8 8 9 10 9 12 13 15 15 14 13 14 15 16 18 18 17
17 19 25 18 5 13 12 20 12 3 8 18 27 26 21 22 22 21 22 21 19 19 18 17 16 15 15 15 14 16 14 13 10 8 9 11 8 10 12 13 15 15 14 14 14 14 17 17 17
17 22 19 13 2 21 22 12 8 5 18 13 17 27 20 21 23 22 20 19 19 20 19 17 16 13 13 14 13 11 13 12 12 10 11 6 10 11 11 13 14 15 15 14 13 13 13 13 14
28 18 31 36 36 34 19 17 14 18 20 15 12 20 18 20 22 22 20 19 18 18 17 16 16 13 13 15 14 11 8 8 8 12 11 10 8 10 11 12 11 14 14 13 13 13 13 12 10
28 29 17 19 29 33 12 9 12 15 17 10 12 16 15 17 19 20 21 19 19 18 16 14 14 13 14 15 13 10 5 1 2 17 6 7 14 7 8 9 12 12 11 11 11 11 12 11 9
18 29 27 32 14 26 27 14 12 9 18 7 10 13 12 14 14 18 19 17 16 18 17 14 13 13 13 13 11 7 5 5 9 14 11 6 8 16 12 10 9 8 8 8 8 8 9 7 7
31 19 26 29 24 32 30 21 11 6 6 9 11 10 3 10 13 22 17 18 16 16 15 13 12 11 12 12 12 11 13 21 21 27 14 9 6 4 6 9 6 5 5 4 4 4 5 4 4
Wind_Direction
133 133 143 137 128 120 23 58 70 69 79 88 84 81 66 108 321 43 95 114 184 175 173 176 169 162 156 147 151 159 159 154 137 118 113 124 111 116 110 106 100 106 100 93 98 96 100 106 107
147 143 131 121 113 98 121 54 56 61 70 90 59 60 51 54 77 96 104 177 164 156 170 175 163 168 148 151 152 155 151 136 141 132 116 127 115 123 117 111 107 110 102 106 108 101 99 107 110
151 149 136 118 48 42 48 65 68 79 75 70 64 66 73 83 91 95 163 155 154 156 95 153 161 162 159 154 149 152 148 142 131 131 119 127 131 129 127 116 114 117 112 113 115 108 105 114 114
143 151 141 47 41 51 73 78 80 75 80 81 87 62 86 101 86 122 126 134 140 125 145 148 153 188 153 163 156 139 135 144 140 138 133 130 128 136 138 132 133 131 130 126 121 117 110 115 116
134 132 71 51 41 50 76 96 74 79 90 89 86 83 87 101 115 117 126 133 125 84 107 148 165 169 160 159 153 140 132 138 140 142 141 139 134 145 147 140 142 141 141 135 128 128 124 123 124
138 124 75 65 48 66 97 103 75 65 88 91 89 94 88 104 113 118 111 130 96 106 101 124 176 166 167 171 156 140 135 137 139 150 152 145 146 146 140 132 133 133 132 127 132 134 126 128 126
146 16 86 71 64 33 51 80 82 93 92 89 100 97 103 114 123 111 111 122 98 95 94 91 133 140 146 209 143 144 144 137 137 151 151 148 137 131 132 127 125 124 122 123 121 126 128 132 129
131 96 54 65 72 66 73 67 85 85 89 102 99 108 117 123 126 105 87 91 101 86 86 100 123 132 125 126 141 140 136 135 131 145 148 147 141 132 127 122 116 127 124 132 111 120 128 133 134
190 67 52 69 82 87 76 60 49 84 104 111 114 112 115 120 119 117 109 81 176 127 102 119 123 123 130 112 113 123 127 131 127 138 149 147 145 133 129 119 115 127 133 132 122 118 131 134 144
114 72 65 76 88 75 66 86 100 96 102 112 94 101 112 122 121 117 123 119 120 120 117 133 130 119 134 102 99 119 115 126 131 135 149 146 179 154 144 115 128 124 131 130 130 123 129 137 139
66 75 91 61 80 87 85 109 81 113 98 107 107 113 120 124 123 119 121 119 124 141 350 211 96 73 129 99 111 113 110 118 131 127 155 137 15 151 120 130 117 115 130 132 120 127 131 142 143
68 78 83 93 82 108 81 96 52 71 95 102 108 116 124 127 127 125 125 126 106 128 134 95 71 79 202 102 128 114 103 113 120 156 159 46 67 113 126 103 110 119 117 130 121 120 131 151 143
134 100 93 92 91 92 103 85 84 69 77 102 113 119 120 127 131 125 121 114 111 134 125 98 82 84 62 102 149 105 107 95 116 131 114 115 104 76 109 83 106 115 105 90 143 139 144 125 139
134 111 102 98 93 110 89 93 86 89 92 102 115 126 130 129 129 120 120 109 109 126 113 99 98 106 103 119 120 106 81 100 84 95 92 94 51 79 100 93 115 123 111 98 110 83 71 109 158
113 112 110 99 110 83 309 130 81 100 105 111 118 128 133 139 139 125 126 112 115 125 107 93 97 100 95 110 120 126 117 117 83 77 73 359 159 131 151 148 35 97 107 101 103 95 101 49 181
172 273 120 108 115 83 93 112 100 105 108 115 121 126 129 136 136 128 130 123 119 124 101 93 105 91 97 96 117 136 15 129 77 58 77 7 44 117 155 153 88 113 106 105 96 96 114 94 76
249 158 126 93 119 108 127 101 104 114 117 118 122 125 125 127 131 127 130 131 118 113 109 103 101 101 106 84 105 134 114 101 118 58 346 267 151 120 148 75 116 118 127 90 62 35 342 354 335
237 222 141 95 102 131 120 103 108 123 124 126 128 126 126 128 126 125 127 135 117 108 111 123 120 101 94 87 125 211 31 224 39 95 65 122 144 135 124 148 76 95 55 38 36 13 358 355 36
165 170 152 56 99 108 150 104 117 128 132 129 135 132 133 135 129 121 124 129 115 107 117 133 129 97 90 88 109 142 133 60 319 346 33 65 100 104 80 54 89 88 55 56 37 33 3 2 11
151 192 333 47 116 53 126 92 113 125 138 134 140 138 139 136 138 126 130 123 120 115 118 132 131 116 125 137 134 121 291 338 356 291 233 346 50 92 115 82 66 56 87 50 46 14 317 349 21
180 207 3 172 64 42 29 22 82 19 168 148 138 147 150 145 144 142 136 138 129 125 123 129 140 128 143 155 123 65 284 325 26 115 125 105 94 77 51 48 41 51 55 58 55 38 300 274 49
229 337 6 351 351 354 69 37 88 127 123 143 156 158 153 153 150 150 147 144 142 133 133 131 138 134 143 161 151 106 110 95 134 143 95 75 76 57 61 57 55 67 61 69 63 191 238 234 275
252 273 291 295 345 76 179 271 334 18 74 222 182 173 162 152 154 160 155 146 150 139 137 134 137 144 148 151 159 115 108 138 53 18 20 21 53 67 80 70 69 82 89 73 202 248 228 235 237
272 259 271 316 229 221 216 285 14 37 16 177 213 206 169 155 157 154 153 144 142 137 133 135 137 142 148 146 156 149 130 148 61 90 6 33 71 247 99 75 79 93 124 103 132 164 192 195 188
282 288 290 304 197 204 251 311 327 77 135 124 171 182 160 161 151 148 153 147 135 135 136 136 136 139 143 146 146 157 151 144 131 31 16 174 82 108 103 87 95 96 110 117 105 111 173 166 180
276 274 283 306 320 242 327 337 11 74 154 141 173 179 154 152 150 150 144 141 135 135 134 132 131 129 135 145 143 136 153 146 144 125 141 46 330 353 2 127 112 86 89 108 102 114 134 137 139
264 271 263 264 257 261 321 345 357 153 149 118 72 134 140 146 149 143 139 137 132 131 130 125 128 124 132 144 146 138 126 133 126 145 134 149 31 38 85 119 112 66 75 91 103 115 131 68 93
261 256 283 283 279 277 333 26 1 147 151 67 71 117 123 136 145 142 142 140 134 133 128 124 125 126 130 145 139 133 106 86 60 294 83 84 321 3 66 61 38 52 74 90 101 110 117 91 89
267 260 270 264 285 284 279 335 29 343 321 46 78 107 124 134 135 141 140 140 137 136 135 126 124 126 130 132 125 101 37 310 302 293 313 120 349 310 341 4 27 61 72 90 96 112 64 76 63
255 269 265 268 278 264 270 313 11 42 92 8 71 80 80 135 159 136 129 138 140 137 130 126 123 119 123 119 128 121 122 163 178 216 159 138 128 92 352 350 13 32 45 70 81 84 78 66 44